{"data":{"norad_id":66243,"intl_designator":"2025-245K","name":"STARLINK-35495","alt_names":[],"object_type":"PAYLOAD","status":"ACTIVE","operator":null,"country":"US","launch_date":"2025-10-29","launch_site_code":"AFETR","launch_vehicle":null,"mission":null,"orbit_class":"UNKNOWN","rcs_meters":null,"size_class":null,"mass_kg":null,"dimensions":null,"purposes":["comms"],"wikipedia_slug":null,"has_3d_model":false,"image_url":null,"decayed_at":null,"tle_current":{"epoch":"2026-05-25T03:04:24.471264Z","epoch_age_seconds":60123,"freshness":"FRESH","line1":"1 66243U 25245K   26145.12806101  .00027024  00000+0  92087-3 0  9999","line2":"2 66243  53.1594 288.5559 0001113  85.0718 275.0409 15.30211931 32959","mean_motion":15.30211931,"eccentricity":0.0001113,"inclination_deg":53.1594,"raan_deg":288.5559,"arg_perigee_deg":85.0718,"mean_anomaly_deg":275.0409,"bstar":0.00092087,"rev_number":3295,"period_min":94.104611970902,"perigee_km":474.41667171494,"apogee_km":475.94221995579,"semimajor_km":6853.3164458354,"source":"CELESTRAK","updated_at":"2026-05-25T13:38:21.135090Z"}}}